Location: ????????
(54.6123°N, 39.2099°E)
Time: 03:45:53
(UTC+00:00)

Cosmos 1743 - Pass Details

Date: 19 May 2025
Orbit: 432 x 442 km, 82.5° (Epoch: 15 June)

Event Time Altitude Azimuth Distance (km) Brightness Sun altitude
Rises 18:39:06 0° 340° (NNW) 2,462 7.8 -7.9°
Reaches altitude 10° 18:41:20 10° 329° (NNW) 1,583 6.9 -8.1°
Maximum altitude 18:44:21 29° 268° (W) 854 4.2 -8.4°
Drops below altitude 10° 18:47:21 10° 207° (SSW) 1,566 4.9 -8.6°
Enters shadow 18:49:19 - 197° (SSW) 2,334 5.7 -8.8°
